星链-5193 (STARLINK-5193 )

导读

STARLINK-5193是美国太空探索技术公司(SpaceX)星链互联网卫星星座的一员,于2022年10月20日发射入轨。星链计划旨在搭建全球卫星互联网,为全球提供宽带互联网接入服务,该卫星主要承担低轨道网络通信节点任务,助力覆盖偏远地区网络盲区,提升全球网络连通性。

基本信息
目录编号:
54095
目录名称:
STARLINK-5193
国际标识:
2022-136AW
轨道中心:
EARTH
卫星名称:
星链-5193
卫星全名:
星链-5193 (STARLINK-5193 )
卫星状态:
在轨 (已飞行1425 天)
发射日期:
2022-10-20 UTC
国别 :
美国 (US)
星等 :
--
该卫星已列入 空间交会检测服务 Space Conjunction Data Service (SCDS) ,当前飞行风险评估等级: 无高风险
轨道信息
数据来源 国际轨道数据 AOE轨道数据
星历时间 2026-09-14T04:00:02+0800
7小时前
查看轨道信息
2026-09-09T23:00:00+0800
4天前
查看轨道信息
半长轴 6906.164km 6917.873km
偏心率 0.0001498 0.0001262
轨道倾角 53.160° 53.159°
近地点辐角 117.818° 74.293°
升交点赤经 208.528° 227.477°
平近点角 199.959° 35.077°
近地点 526.992km 538.862km
远地点 529.062km 540.61km
周期 95.195分钟 95.437分钟
每日圈数 15.126816 15.088427
详细信息
固有亮度:
5
最大亮度:
2.5
卫星平台:
Starlink v1.5
覆盖范围:
全球
运营商:
太空探索技术公司
运营商所在国:
美国
制造商(研发单位):
太空探索技术公司
制造商所在国:
美国
使用方式:
暂无
卫星简介
星链(Starlink)计划是由太空探索技术公司(SpaceX)提出的一个巨型低轨卫星互联网星座项目,计划在2019年至2024年间在太空搭建由约1.2万颗卫星组成的“星链”网络,其中1584颗将部署在地球上空550千米处的近地轨道,并从2020年开始工作。该卫星仍在工作。
2D轨道图
3D轨道图
轨道高度分析图
轨道倾角分析图
轨道综合分析图
查看轨道综合分析图
交会数据列表
事件ID 空间交会对象 最接近时刻(TCA) 交会距离 交会风险概率(CRP) 交会风险指数(CRI) 操作
CDM_260914-152603-941905-409521
2026-09-14T
15:26:05+0000
1.649 km
极远距离
3.140713E-6 低风险 0.45
与全量物体交会距离演化趋势 订阅飞行安全评估服务
与全量物体交会风险概率演化趋势 订阅飞行安全评估服务